Location: Banios
(43.0451°N, 0.2335°E)
Time: 11:42:48
(UTC+00:00)

Vanguard 3 - Visible Passes

Search period start: 13 May 2021 00:00
Search period end: 23 May 2021 00:00
Orbit: 508 x 3262 km, 33.3° (Epoch: 12 May)

Date Brightness Start Highest point End Pass type
(mag) Time Alt. Az. Time Alt. Az. Time Alt. Az.
13 May 9.7 19:55:29 10° WSW 20:13:58 59° S 20:25:47 11° ESE visible
13 May 9.2 22:12:57 10° W 22:27:28 42° SSW 22:30:19 37° S visible
14 May 10.4 00:32:57 10° WSW 00:34:51 12° WSW 00:34:51 12° WSW visible
14 May 9.6 20:55:05 10° W 21:12:24 53° SSW 21:20:08 24° SE visible
14 May 9.7 23:13:21 10° W 23:24:36 27° SW 23:24:40 27° SW visible
15 May 9.9 19:37:32 10° WSW 19:56:31 60° S 20:09:31 10° ESE visible
15 May 9.4 21:55:00 10° W 22:10:15 41° SSW 22:14:28 33° S visible
16 May 10.4 00:15:50 10° WSW 00:18:59 13° WSW 00:18:59 13° WSW visible
16 May 9.8 20:37:07 10° W 20:55:01 53° SSW 21:04:15 20° SE visible
16 May 9.8 22:55:37 10° W 23:07:21 26° SW 23:08:47 26° SSW visible
17 May 10.1 19:19:41 10° W 19:38:58 60° S 19:52:53 10° ESE visible
17 May 9.6 21:37:05 10° W 21:52:53 40° SSW 21:58:34 28° SSE visible
17 May 10.5 23:58:53 10° WSW 00:03:06 13° WSW 00:03:06 13° WSW visible
18 May 10.0 20:19:13 10° W 20:37:31 52° SSW 20:48:21 17° SE visible
18 May 10.0 22:37:54 10° W 22:49:59 25° SW 22:52:53 23° SSW visible
19 May 9.9 21:19:13 10° W 21:35:23 38° SW 21:42:40 24° SSE visible
19 May 10.6 23:42:14 10° WSW 23:46:25 12° SW 23:47:13 12° SW visible
20 May 10.2 20:01:24 10° W 20:19:53 50° SSW 20:32:28 13° SE visible
20 May 10.2 22:20:16 10° W 22:32:29 24° SW 22:37:00 20° SSW visible
21 May 10.1 21:01:25 10° W 21:17:46 37° SW 21:26:49 19° SSE visible
21 May 10.7 23:26:20 10° WSW 23:28:56 11° SW 23:31:20 10° SW visible
22 May 10.4 19:43:42 10° W 20:02:09 49° SSW 20:16:28 10° SE visible
22 May 10.4 22:02:44 10° W 22:14:52 22° SW 22:21:10 17° SSW visible
